Total_Precipitation_Accumulation
0.15 0.27 0.30 0.28 0.25 0.21 0.17 0.14 0.25 0.33 0.47 0.55 0.60 0.74 0.96 1.14 1.11 1.02 0.83 0.73 0.81 0.83 0.90 0.96 1.10 1.22 1.14 1.15 1.17 1.30 1.49 1.60 1.74 1.73 1.72 1.71 1.78 1.81 1.81 1.86 1.81 1.89 1.96 1.97
0.19 0.23 0.28 0.31 0.28 0.21 0.16 0.14 0.19 0.30 0.47 0.58 0.65 0.77 0.92 0.95 0.83 0.73 0.65 0.54 0.52 0.70 0.81 0.78 0.82 0.93 0.87 0.91 1.04 1.18 1.27 1.37 1.60 1.73 1.75 1.74 1.81 1.94 1.96 1.91 1.91 1.94 1.89 1.94
0.30 0.29 0.29 0.37 0.36 0.27 0.18 0.17 0.24 0.37 0.55 0.72 0.63 0.64 0.73 0.78 0.76 0.70 0.67 0.52 0.47 0.56 0.73 0.74 0.75 0.76 0.87 0.98 1.12 1.22 1.37 1.51 1.70 1.81 1.89 1.90 1.87 2.00 1.96 1.96 2.03 1.99 1.91 1.92
0.38 0.49 0.57 0.41 0.34 0.32 0.31 0.29 0.30 0.44 0.47 0.63 0.64 0.67 0.80 0.80 0.80 0.67 0.61 0.53 0.52 0.52 0.55 0.61 0.68 0.75 0.91 1.20 1.45 1.51 1.65 1.83 1.93 2.05 2.00 1.97 1.97 2.00 2.09 2.18 2.23 2.20 2.13 2.05
0.54 0.68 0.58 0.50 0.35 0.39 0.44 0.58 0.60 0.70 0.70 0.65 0.64 0.74 0.83 0.71 0.65 0.67 0.59 0.55 0.58 0.63 0.66 0.73 0.79 0.83 1.02 1.25 1.56 1.75 1.80 1.90 2.05 2.14 2.19 2.19 2.19 2.17 2.26 2.38 2.34 2.26 2.21 2.22
0.68 0.83 0.81 0.67 0.51 0.51 0.62 1.09 0.92 0.87 0.91 0.80 0.75 0.91 1.00 0.91 0.83 0.78 0.71 0.67 0.68 0.72 0.84 1.03 1.10 1.12 1.24 1.36 1.51 1.71 1.78 1.89 2.07 2.29 2.35 2.36 2.50 2.60 2.55 2.50 2.36 2.37 2.36 2.34
0.85 0.91 0.99 0.82 0.73 0.76 1.20 1.51 1.15 0.99 0.99 0.98 1.09 1.15 1.09 0.94 0.94 0.88 0.77 0.78 0.77 0.80 0.96 1.21 1.34 1.39 1.49 1.63 1.72 1.73 1.81 1.96 2.14 2.31 2.40 2.48 2.65 2.73 2.69 2.63 2.60 2.57 2.50 2.55
1.03 1.22 1.40 0.95 0.89 1.32 1.61 1.35 1.34 1.34 1.30 1.20 1.18 1.14 1.08 0.97 0.95 0.89 0.84 0.90 0.95 0.99 1.15 1.38 1.55 1.53 1.60 1.69 1.72 1.75 1.76 1.90 2.03 2.18 2.20 2.30 2.57 2.66 2.75 2.76 2.72 2.63 2.58 2.45
1.39 1.51 1.36 1.13 1.20 1.38 1.51 1.66 1.57 1.47 1.49 1.31 1.29 1.19 1.09 1.02 0.97 0.93 0.89 0.95 1.02 1.09 1.27 1.54 1.72 1.76 1.83 1.73 1.80 1.82 1.84 1.97 2.11 2.19 2.25 2.35 2.47 2.52 2.61 2.67 2.62 2.50 2.52 2.47
1.63 1.66 1.54 1.38 1.22 1.14 1.27 1.39 1.38 1.38 1.38 1.32 1.28 1.20 1.10 1.01 0.94 0.94 0.94 0.89 0.96 1.09 1.19 1.30 1.52 1.74 1.85 1.88 1.92 1.91 1.94 2.00 2.09 2.20 2.20 2.28 2.40 2.52 2.63 2.73 2.80 2.67 2.54 2.43
1.88 1.76 1.62 1.59 1.45 1.35 1.43 1.49 1.40 1.33 1.32 1.32 1.27 1.20 1.05 1.02 0.99 0.97 0.95 0.91 0.96 1.07 1.12 1.17 1.26 1.41 1.49 1.62 1.75 1.82 1.88 1.95 1.98 2.02 2.12 2.24 2.30 2.41 2.39 2.45 2.48 2.46 2.39 2.36
2.19 1.91 1.75 1.69 1.53 1.39 1.46 1.44 1.51 1.62 1.59 1.36 1.25 1.33 1.24 1.11 1.02 1.00 1.01 1.00 1.02 1.06 1.06 1.08 1.15 1.31 1.43 1.54 1.69 1.84 1.93 1.96 1.90 1.86 1.94 2.02 2.11 2.13 2.14 2.03 2.02 1.96 1.97 1.95
1.83 1.63 1.59 1.56 1.48 1.39 1.38 1.31 1.31 1.47 1.53 1.41 1.36 1.34 1.38 1.30 1.21 1.12 1.04 0.96 0.97 1.03 1.05 1.10 1.17 1.32 1.39 1.45 1.59 1.73 1.84 1.88 1.88 1.87 1.90 1.92 2.01 1.98 2.00 1.92 1.82 1.73 1.67 1.68
1.55 1.52 1.56 1.48 1.38 1.37 1.38 1.30 1.21 1.25 1.35 1.38 1.41 1.44 1.53 1.46 1.34 1.27 1.21 1.11 1.03 1.02 1.01 1.07 1.20 1.24 1.28 1.35 1.41 1.50 1.58 1.68 1.81 1.90 1.94 1.95 2.01 2.07 2.14 2.16 2.05 1.83 1.69 1.63
1.63 1.51 1.42 1.29 1.28 1.34 1.34 1.28 1.23 1.23 1.38 1.55 1.50 1.44 1.48 1.40 1.35 1.28 1.20 1.14 1.10 1.09 1.13 1.14 1.18 1.20 1.26 1.35 1.44 1.47 1.50 1.52 1.55 1.63 1.74 1.83 1.83 1.88 1.95 2.04 2.05 1.94 1.80 1.69
1.75 1.62 1.44 1.30 1.34 1.49 1.53 1.48 1.39 1.30 1.28 1.47 1.53 1.43 1.39 1.31 1.22 1.24 1.26 1.24 1.27 1.27 1.29 1.29 1.33 1.28 1.32 1.42 1.50 1.55 1.52 1.55 1.52 1.48 1.48 1.54 1.61 1.68 1.76 1.87 1.94 1.91 1.83 1.72
1.83 1.79 1.66 1.48 1.38 1.41 1.47 1.51 1.45 1.38 1.30 1.35 1.42 1.45 1.43 1.36 1.24 1.20 1.22 1.23 1.29 1.31 1.33 1.41 1.45 1.44 1.50 1.54 1.56 1.57 1.52 1.51 1.51 1.50 1.50 1.53 1.59 1.66 1.69 1.75 1.80 1.72 1.61 1.52
1.72 1.64 1.57 1.46 1.36 1.34 1.37 1.38 1.36 1.34 1.29 1.30 1.34 1.37 1.40 1.43 1.40 1.35 1.27 1.27 1.29 1.26 1.25 1.29 1.37 1.41 1.53 1.65 1.68 1.64 1.53 1.46 1.41 1.41 1.48 1.53 1.60 1.68 1.72 1.72 1.66 1.58 1.50 1.39
1.61 1.55 1.48 1.37 1.34 1.33 1.34 1.32 1.34 1.31 1.26 1.25 1.35 1.45 1.44 1.45 1.51 1.48 1.41 1.44 1.50 1.51 1.37 1.28 1.36 1.31 1.39 1.62 1.78 1.78 1.63 1.52 1.45 1.44 1.46 1.49 1.52 1.57 1.62 1.59 1.53 1.43 1.33 1.26
1.59 1.59 1.58 1.53 1.44 1.44 1.42 1.34 1.33 1.32 1.29 1.32 1.40 1.44 1.51 1.48 1.53 1.60 1.59 1.53 1.52 1.60 1.59 1.49 1.36 1.29 1.28 1.50 1.82 1.75 1.67 1.57 1.46 1.38 1.40 1.43 1.47 1.54 1.54 1.48 1.40 1.34 1.30 1.27
1.71 1.76 1.72 1.66 1.56 1.45 1.36 1.28 1.33 1.37 1.34 1.39 1.48 1.49 1.53 1.49 1.45 1.57 1.70 1.53 1.41 1.54 1.59 1.54 1.35 1.27 1.28 1.47 1.74 1.72 1.64 1.58 1.47 1.37 1.36 1.38 1.41 1.48 1.51 1.48 1.41 1.31 1.27 1.29
2.00 2.02 1.85 1.65 1.57 1.45 1.34 1.29 1.29 1.30 1.33 1.42 1.42 1.46 1.61 1.62 1.56 1.54 1.52 1.49 1.42 1.51 1.50 1.42 1.34 1.28 1.25 1.33 1.44 1.52 1.46 1.37 1.30 1.24 1.22 1.27 1.34 1.42 1.46 1.49 1.49 1.43 1.42 1.42
2.06 1.98 1.85 1.66 1.58 1.41 1.22 1.19 1.21 1.24 1.33 1.43 1.51 1.60 1.82 1.84 1.74 1.78 1.59 1.29 1.25 1.38 1.34 1.27 1.31 1.27 1.22 1.18 1.30 1.38 1.33 1.31 1.24 1.15 1.10 1.14 1.23 1.33 1.41 1.38 1.39 1.42 1.39 1.33
1.85 1.77 1.68 1.54 1.55 1.49 1.39 1.30 1.27 1.32 1.37 1.41 1.48 1.64 1.88 2.01 1.79 1.50 1.39 1.33 1.28 1.26 1.19 1.22 1.24 1.23 1.21 1.15 1.27 1.37 1.35 1.34 1.32 1.27 1.18 1.20 1.24 1.28 1.33 1.29 1.26 1.25 1.25 1.28
1.84 1.69 1.56 1.57 1.69 1.70 1.58 1.48 1.46 1.51 1.53 1.50 1.49 1.58 1.75 1.97 1.94 1.52 1.25 1.13 1.19 1.18 1.12 1.21 1.26 1.26 1.12 1.04 1.14 1.31 1.41 1.45 1.46 1.40 1.34 1.40 1.42 1.44 1.42 1.36 1.37 1.36 1.32 1.28
1.79 1.74 1.69 1.68 1.69 1.72 1.72 1.73 1.79 1.83 1.86 1.90 1.85 1.74 1.81 1.91 1.79 1.54 1.28 1.09 1.10 1.18 1.13 1.20 1.27 1.29 1.17 1.15 1.19 1.28 1.37 1.49 1.52 1.48 1.44 1.43 1.44 1.50 1.54 1.50 1.47 1.46 1.37 1.30
1.73 1.64 1.62 1.64 1.65 1.71 1.82 1.97 2.08 2.09 2.13 2.26 2.25 1.97 1.87 1.92 1.88 1.72 1.50 1.34 1.33 1.34 1.33 1.30 1.22 1.19 1.25 1.34 1.34 1.28 1.32 1.43 1.45 1.46 1.53 1.48 1.45 1.43 1.44 1.41 1.37 1.34 1.23 1.14